Orbital Elements
Epoch 2021 Jan. 26.0 TT = JDT 2459240.5
T 2021 Jan. 14.26633 TT Rudenko
q 4.2815876 (2000.0) P Q
z +0.0261410 Peri. 91.03148 +0.04423977 -0.99360146
+/-0.0000000 Node 6.95382 -0.81058070 -0.09650271
e 0.8880749 Incl. 120.86968 +0.58395358 -0.05868025
H 13.0
From 108 observations 2017 Sept. 16-2020 Oct. 12, mean residual 0".3.
|